Location: Acequia del Cap
(41.7000°N, 0.6167°E)
Time: 16:03:12
(UTC+00:00)

Meteor 2-5 Rocket - Pass Details

Date: 07 August 2020
Orbit: 832 x 912 km, 81.2° (Epoch: 23 September)

Event Time Altitude Azimuth Distance (km) Brightness Sun altitude
Rises 02:02:13 0° 350° (N) 3,446 7.6 -25.8°
Reaches altitude 10° 02:04:41 10° 351° (N) 2,494 6.7 -25.6°
Maximum altitude 02:10:20 85° 79° (E) 853 3.6 -25.0°
Enters shadow 02:11:40 54° 163° (SSE) 1,014 3.8 -24.8°
